Flag for U.S.A. Weather past 2 weeks in Pierre, South Dakota, U.S.A.

Now
46 °F

Partly sunny.


Feels Like: 37 °F
Forecast: 45 / 62 °F
Wind: 28 mph from Northwest

Location: Pierre Regional Airport

Current Time: Mar 29, 2015 at 11:07:32 AM

Latest Report: Mar 29, 2015 at 9:53 AM


Visibility: 10 mi

Pressure: 30.08 "Hg

Humidity: 56%

Dew point: 31 °F

Location of PierreLocation

Historic Weather in Pierre — Graph

°F

Pierre temperature yesterday

Maximum temperature yesterday: 73 °F (at 4:53 PM)
Minimum temperature yesterday: 22 °F (at 7:53 AM)
Average temperature yesterday: 46 °F

Past Weeks' High & Low Weather Summary

 TemperatureHumidityPressure
High82 °F (Mar 15, 5:53 PM)96% (Mar 21, 2:53 AM)30.61 "Hg (Mar 21, 2:53 AM)
Low19 °F (Mar 23, 2:53 AM)15% (Mar 15, 5:53 PM)29.51 "Hg (Mar 28, 9:53 PM)
Average43 °F55%30.06 "Hg
* Reported Mar 14 9:53 AM — Mar 29 9:53 AM, Pierre, Weather by CustomWeather, © 2015

Note: Actual official high and low records may vary slightly from our data, if they occured in-between our weather recording intervals... More about our weather records

Advertising

Pierre weather history for previous 24 hours

 ConditionsComfort  
Time TempWeatherWind HumidityBarometerVisibility
9:53 AM
Sun, Mar 29
46 °FPartly sunny.28 mph56%30.08 "Hg10 mi
8:53 AM44 °FOvercast.33 mph63%30.03 "Hg10 mi
7:53 AM45 °FOvercast.31 mph71%29.94 "Hg10 mi
6:53 AM46 °FOvercast.43 mph77%29.86 "Hg10 mi
5:53 AM46 °FOvercast.35 mph68%29.79 "Hg10 mi
4:53 AM51 °FOvercast.40 mph54%29.74 "Hg10 mi
3:53 AM47 °FClear.14 mph64%29.75 "Hg10 mi
2:53 AM49 °FClear.17 mph64%29.73 "Hg10 mi
1:53 AM48 °FClear.12 mph71%29.74 "Hg10 mi
12:53 AM53 °FClear.21 mph72%29.72 "Hg10 mi
11:53 PM
Sat, Mar 28
58 °FClear.36 mph67%29.65 "Hg10 mi
10:53 PM58 °FClear.10 mph43%29.57 "Hg10 mi
9:53 PM56 °FClear.23 mph46%29.51 "Hg10 mi
8:53 PM58 °FSunny.22 mph43%29.55 "Hg10 mi
7:53 PM62 °FSunny.20 mph37%29.58 "Hg10 mi
6:53 PM66 °FSunny.18 mph33%29.62 "Hg10 mi
5:53 PM73 °FSunny.21 mph26%29.65 "Hg10 mi
4:53 PM73 °FSunny.26 mph26%29.69 "Hg10 mi
3:53 PM71 °FSunny.24 mph28%29.75 "Hg10 mi
2:53 PM68 °FSunny.23 mph31%29.80 "Hg10 mi
1:53 PM60 °FSunny.20 mph41%29.87 "Hg10 mi
12:53 PM56 °FSunny.21 mph46%29.90 "Hg10 mi
11:53 AM48 °FSunny.16 mph56%29.96 "Hg10 mi
Weather by CustomWeather, © 2015

See weather overviewHow to use our weather pages